TimeCDT,TemperatureF,Dew PointF,Humidity,Sea Level PressureIn,VisibilityMPH,Wind Direction,Wind SpeedMPH,Gust SpeedMPH,PrecipitationIn,Events,Conditions,WindDirDegrees,DateUTC
12:56 AM,55.0,48.0,77,30.13,10.0,WSW,3.5,-,N/A,,Clear,250,2014-03-10 05:56:00
1:56 AM,53.1,46.9,80,30.12,10.0,NW,3.5,-,N/A,,Clear,320,2014-03-10 06:56:00
2:56 AM,53.1,46.9,80,30.11,10.0,Calm,Calm,-,N/A,,Clear,0,2014-03-10 07:56:00
3:56 AM,53.1,46.0,77,30.09,10.0,Calm,Calm,-,N/A,,Clear,0,2014-03-10 08:56:00
4:56 AM,52.0,46.9,83,30.09,10.0,Calm,Calm,-,N/A,,Clear,0,2014-03-10 09:56:00
5:56 AM,51.1,46.0,83,30.09,10.0,Calm,Calm,-,N/A,,Clear,0,2014-03-10 10:56:00
6:56 AM,48.9,44.1,83,30.12,10.0,Calm,Calm,-,N/A,,Clear,0,2014-03-10 11:56:00
7:56 AM,54.0,48.0,80,30.12,10.0,Calm,Calm,-,N/A,,Clear,0,2014-03-10 12:56:00
8:56 AM,62.1,50.0,65,30.12,10.0,North,4.6,-,N/A,,Clear,10,2014-03-10 13:56:00
9:56 AM,70.0,50.0,49,30.13,10.0,NE,3.5,-,N/A,,Clear,50,2014-03-10 14:56:00
10:56 AM,73.9,48.0,40,30.12,10.0,Variable,3.5,-,N/A,,Clear,0,2014-03-10 15:56:00
11:56 AM,77.0,46.9,34,30.12,10.0,NW,10.4,-,N/A,,Clear,320,2014-03-10 16:56:00
12:56 PM,78.1,48.9,36,30.07,10.0,NNW,9.2,-,N/A,,Clear,330,2014-03-10 17:56:00
1:56 PM,80.1,48.0,32,30.03,10.0,NNW,9.2,17.3,N/A,,Clear,330,2014-03-10 18:56:00
2:56 PM,81.0,48.0,31,29.99,7.0,NW,6.9,-,N/A,,Clear,320,2014-03-10 19:56:00
3:56 PM,81.0,48.9,33,29.97,7.0,WSW,4.6,-,N/A,,Scattered Clouds,240,2014-03-10 20:56:00
4:56 PM,82.0,48.9,31,29.95,10.0,Variable,5.8,-,N/A,,Clear,0,2014-03-10 21:56:00
5:56 PM,80.1,50.0,35,29.95,10.0,WNW,4.6,-,N/A,,Clear,290,2014-03-10 22:56:00
6:56 PM,73.9,52.0,46,29.96,9.0,Calm,Calm,-,N/A,,Clear,0,2014-03-10 23:56:00
7:56 PM,68.0,53.1,59,29.97,10.0,Calm,Calm,-,N/A,,Clear,0,2014-03-11 00:56:00
8:56 PM,68.0,53.1,59,29.98,10.0,WSW,6.9,-,N/A,,Clear,240,2014-03-11 01:56:00
9:56 PM,66.0,53.1,63,29.98,10.0,WSW,4.6,-,N/A,,Clear,240,2014-03-11 02:56:00
10:56 PM,64.0,52.0,65,29.98,10.0,WSW,3.5,-,N/A,,Clear,250,2014-03-11 03:56:00
11:56 PM,63.0,52.0,67,29.96,10.0,West,4.6,-,N/A,,Clear,260,2014-03-11 04:56:00